Flag for Switzerland Weather past 2 weeks in Olten, Solothurn, Switzerland

Now
26 °F

Chilly.


Feels Like: 14 °F
Forecast: 6 / 28 °F
Wind: 15 mph from Northeast

Location: Wynau

Current Time: Dec 28, 2014 at 7:44:19 PM

Latest Report: Dec 28, 2014 at 7:00 PM


Visibility: N/A

Pressure: 30.29 "Hg

Humidity: 78%

Dew point: 20 °F

Location of OltenLocation

Historic Weather in Olten — Graph

°F

Olten temperature yesterday

Maximum temperature yesterday: 36 °F (at 4:00 PM)
Minimum temperature yesterday: 27 °F (at 1:00 AM)
Average temperature yesterday: 32 °F

Past Weeks' High & Low Weather Summary

 TemperatureHumidityPressure
High55 °F (Dec 19, 2:00 PM)100% (Dec 14, 6:00 AM)30.63 "Hg (Dec 14, 6:00 AM)
Low24 °F (Dec 24, 8:00 AM)56% (Dec 23, 3:00 PM)29.59 "Hg (Dec 27, 9:00 PM)
Average39 °F89%30.22 "Hg
* Reported Dec 13 6:00 PM — Dec 28 6:00 PM, Olten, Weather by CustomWeather, © 2014

Note: Actual official high and low records may vary slightly from our data, if they occured in-between our weather recording intervals... More about our weather records

Advertising

Olten weather history for previous 24 hours

 ConditionsComfort  
Time TempWeatherWind HumidityBarometerVisibility
6:00 PM
Dec 28
26 °FChilly.9 mph84%30.25 "HgN/A
5:00 PM27 °FChilly.10 mph84%30.20 "HgN/A
4:00 PM28 °FChilly.9 mph87%30.16 "HgN/A
3:00 PM28 °FChilly.8 mph83%30.10 "HgN/A
2:00 PM28 °FChilly.7 mph92%30.05 "HgN/A
1:00 PM29 °FChilly.7 mph81%30.00 "HgN/A
12:00 PM30 °FChilly.6 mph78%29.95 "HgN/A
11:00 AM30 °FChilly.1 mph82%29.90 "HgN/A
10:00 AM31 °FChilly.2 mph86%29.85 "HgN/A
9:00 AM32 °FChilly.5 mph84%29.80 "HgN/A
8:00 AM33 °FChilly.1 mph81%29.75 "HgN/A
7:00 AM32 °FChilly.2 mph93%29.71 "HgN/A
6:00 AM32 °FChilly.1 mph99%29.67 "HgN/A
5:00 AM33 °FChilly.3 mph95%29.64 "HgN/A
4:00 AM33 °FChilly.5 mph95%29.62 "HgN/A
3:00 AM33 °FChilly.7 mph95%29.61 "HgN/A
2:00 AM33 °FChilly.8 mph93%29.59 "HgN/A
1:00 AM33 °FChilly.9 mph94%29.59 "HgN/A
12:00 AM33 °FChilly.10 mph96%29.60 "HgN/A
11:00 PM
Dec 27
34 °FChilly.12 mph91%29.59 "HgN/A
10:00 PM33 °FChilly.10 mph97%29.60 "HgN/A
9:00 PM34 °FChilly.9 mph94%29.59 "HgN/A
8:00 PM33 °FChilly.10 mph96%29.60 "HgN/A
7:00 PM33 °FChilly.9 mph94%29.60 "HgN/A
Weather by CustomWeather, © 2014

See weather overviewHow to use our weather pages